Aurora, CO

3:18 PM MDT on June 28, 2017 (GMT -0600)
Buckley Air Force Base

Weather History for KBKF - September, 2013

Change the Weather History Date:

Wednesday, September 18, 2013

  Actual Average Record
Temperature  
Mean Temperature 70 °F -  
Max Temperature 82 °F 71 °F 89 °F (2004)
Min Temperature 59 °F 45 °F 32 °F (1996)
Cooling Degree Days 6    
Growing Degree Days 20 (Base 50)    
Moisture  
Dew Point 46 °F    
Average Humidity 47    
Maximum Humidity 68    
Minimum Humidity 23    
Precipitation  
Precipitation 0.00 in - - ()
Sea Level Pressure  
Sea Level Pressure 29.72 in    
Wind  
Wind Speed 12 mph (SW)    
Max Wind Speed 23 mph    
Max Gust Speed 26 mph    
Visibility 10 miles    
Events Rain    
Averages and records for this station are not official NWS values.
T = Trace of Precipitation, MM = Missing Value Source: NWS Daily Summary

Daily Weather History Graph

Daily Weather History Graph

Search for Another Location

Airport or City:

Trip Planner

Search our weather history database for the weather conditions in past years. The results will help you decide how hot, cold, wet, or windy it might be!

Date:

Astronomy

Sep. 18, 2013 Rise Set
Actual Time 6:43 AM MDT 7:02 PM MDT
Civil Twilight 6:16 AM MDT 7:29 PM MDT
Nautical Twilight 5:44 AM MDT 8:00 PM MDT
Astronomical Twilight 5:12 AM MDT 8:32 PM MDT
Moon 6:26 PM MDT (9/18) 5:48 AM MDT (9/18)
Length of Visible Light 13h 12m
Length of Day
12h 19m
Waxing Gibbous, 99% of the Moon is Illuminated
Sep 18
Waxing Gibbous
Sep 19
Full
Sep 26
Last Quarter
Oct 4
New
Oct 11
First Quarter

Hourly Weather History & Observations

Time (MDT) Temp. Dew Point Humidity Pressure Visibility Wind Dir Wind Speed Gust Speed Precip Events Conditions
12:55 AM 60.8 °F 50.0 °F 68% 29.70 in 25.0 mi SSW 11.5 mph - N/A   Scattered Clouds
1:55 AM 60.8 °F 48.2 °F 63% 29.69 in 25.0 mi South 12.7 mph - N/A   Partly Cloudy
2:55 AM 60.8 °F 48.2 °F 63% 29.67 in 25.0 mi South 12.7 mph - N/A   Partly Cloudy
3:55 AM 60.8 °F 48.2 °F 63% 29.67 in 25.0 mi SSW 10.4 mph - N/A   Partly Cloudy
4:55 AM 59.0 °F 48.2 °F 67% 29.68 in 25.0 mi SSW 10.4 mph - N/A   Mostly Cloudy
5:55 AM 60.8 °F 48.2 °F 63% 29.70 in 25.0 mi SW 10.4 mph - N/A   Mostly Cloudy
6:55 AM 60.8 °F 48.2 °F 63% 29.76 in 70.0 mi WNW 5.8 mph - N/A   Mostly Cloudy
7:55 AM 64.4 °F 50.0 °F 59% 29.76 in 70.0 mi South 6.9 mph - N/A   Mostly Cloudy
8:55 AM 66.2 °F 50.0 °F 56% 29.75 in 70.0 mi WSW 8.1 mph - N/A   Mostly Cloudy
9:55 AM 73.4 °F 48.2 °F 41% 29.71 in 70.0 mi SSW 12.7 mph - N/A   Scattered Clouds
10:55 AM 77.0 °F 46.4 °F 34% 29.70 in 70.0 mi SSW 23.0 mph - N/A   Scattered Clouds
11:55 AM 78.8 °F 46.4 °F 32% 29.69 in 70.0 mi SSW 21.9 mph - N/A   Scattered Clouds
12:55 PM 80.6 °F 46.4 °F 30% 29.69 in 70.0 mi SSW 13.8 mph - N/A   Mostly Cloudy
1:55 PM 82.4 °F 44.6 °F 26% 29.65 in 70.0 mi South 8.1 mph - N/A   Mostly Cloudy
2:55 PM 82.4 °F 42.8 °F 25% 29.64 in 70.0 mi South 8.1 mph - N/A   Mostly Cloudy
3:55 PM 82.4 °F 41.0 °F 23% 29.62 in 70.0 mi South 8.1 mph - N/A   Mostly Cloudy
4:55 PM 71.6 °F 46.4 °F 41% 29.73 in 25.0 mi NW 20.7 mph 26.5 mph N/A   Mostly Cloudy
5:24 PM 69.8 °F 46.4 °F 43% 29.93 in 10.0 mi WNW 10.4 mph - N/A Rain Light Rain Showers
5:55 PM 68.0 °F 48.2 °F 49% 29.73 in 10.0 mi West 9.2 mph - N/A   Mostly Cloudy
6:55 PM 68.0 °F 46.4 °F 46% 29.74 in 10.0 mi WSW 8.1 mph - N/A   Mostly Cloudy
7:55 PM 69.8 °F 39.2 °F 33% 29.72 in 10.0 mi SSW 17.3 mph - N/A   Mostly Cloudy
8:55 PM 68.0 °F 41.0 °F 37% 29.76 in 10.0 mi WSW 11.5 mph - N/A   Mostly Cloudy
9:55 PM 68.0 °F 42.8 °F 40% 29.75 in 10.0 mi South 11.5 mph - N/A   Mostly Cloudy
10:55 PM 66.2 °F 44.6 °F 46% 29.75 in 10.0 mi SSW 10.4 mph - N/A   Mostly Cloudy
11:55 PM 62.6 °F 44.6 °F 52% 29.75 in 10.0 mi SW 8.1 mph - N/A   Mostly Cloudy